HUANJING 1A (HJ-1A)

Last updated on Thu Jul 03 2025 00:02:29 GMT+0000 (Coordinated Universal Time)

1 33320U 08041A 25183.61936221 .00000908 00000+0 11830-3 0 9995 2 33320 97.6409 178.9036 0018718 201.7142 158.3281 14.82754598906583
UTC large
Height (km)
Speed (km/s)
/
Latitude / Longitude
Inclination (degrees)
Orbital Period (minutes)
Azimuth
Elevation
Range (km)
Doppler Factor

Next 0 passes for location: London (51.5072 / 0.1276)

Sorry there are no passes over London.